Location: Göttingen
(51.5413°N, 9.9158°E)
Time: 12:26:42
(UTC+02:00)

BEESAT - Visible Passes

Search period start: 30 June 2022 00:00
Search period end: 10 July 2022 00:00
Orbit: 698 x 708 km, 98.6° (Epoch: 29 June)

Date Brightness Start Highest point End Pass type
(mag) Time Alt. Az. Time Alt. Az. Time Alt. Az.
30 Jun ? 00:06:32 10° NNW 00:08:02 11° NW 00:09:31 10° WNW visible
30 Jun ? 23:09:58 10° N 23:13:57 27° WNW 23:17:57 10° WSW visible
01 Jul ? 23:54:01 10° NNW 23:56:25 14° NW 23:58:48 10° W visible
02 Jul ? 22:57:59 10° N 23:02:15 33° WNW 23:06:30 10° SW visible
03 Jul ? 23:41:47 10° NNW 23:44:47 17° NW 23:47:47 10° W visible
04 Jul ? 22:46:03 10° N 22:50:32 41° WNW 22:54:59 10° SW visible
05 Jul ? 23:29:39 10° N 23:33:07 20° WNW 23:36:34 10° WSW visible
06 Jul ? 22:34:08 10° N 22:38:46 51° WNW 22:43:23 10° SW visible
07 Jul ? 00:14:50 10° NW 00:15:28 10° NW 00:16:05 10° NW visible
07 Jul ? 23:17:36 10° N 23:21:26 25° WNW 23:25:16 10° WSW visible
08 Jul ? 22:22:15 10° N 22:27:00 64° WNW 22:31:44 10° SSW visible
09 Jul ? 00:01:51 10° NNW 00:03:51 13° NW 00:05:50 10° WNW visible
09 Jul ? 23:05:36 10° N 23:09:44 30° WNW 23:13:52 10° WSW visible
